Погода в Ньюкасле

ЮАР     27°45′17″S   29°55′44″E
темп.,
°C
ветер,
м/с
пор.,
м/с
влажн.,
%
обл.,
%
осадки,
мм/ч
давл.,
гПа
погр.,
м
12 мая, ср
ср1223:00+12ссз23310 0.0 102348
02:00+11зсз22400 0.0 102261
05:00+10сз22470 0.0 102252
08:00+13зсз12380 0.0 1023123
11:00+24ююв02170 0.0 1019622
14:00+27юв33130 0.0 1015951
17:00+21ююв11200 0.0 101712
20:00+15зюз11270 0.0 102119
13 мая, чт
чт1323:00+12зсз11330 0.0 102223
02:00+10з11370 0.0 102222
05:00+9з11400 0.0 102219
08:00+12сз01350 0.0 1023115
11:00+24ссз14160 0.0 1019810
14:00+28сз4590 0.0 10152225
17:00+22сз23160 0.0 101646
20:00+15зсз23230 0.0 101947
14 мая, пт
пт1423:00+13ссз23260 0.0 102057
02:00+11сз23300 0.0 102061
05:00+11сз23330 0.0 102157
08:00+14сз24280 0.0 1021118
11:00+25сз23130 0.0 10171306
14:00+27сз3590 0.0 10132469
17:00+22зсз35150 0.0 101499
20:00+15ссв11220 0.0 101728
15 мая, сб
сб1523:00+13сз12250 0.0 101840
02:00+12зсз23280 0.0 101772
05:00+10сз24310 0.0 101774
08:00+14сз24280 0.0 1018143
11:00+24з58140 0.0 10132256
14:00+26з57110 0.0 10102642
17:00+21з25190 0.0 101295
20:00+15сз23290 0.0 101554
16 мая, вс
вс1623:00+13сз22330 0.0 101551
02:00+12сз24350 0.0 101566
05:00+11сз24390 0.0 101677
08:00+14сз25340 0.0 1016160
11:00+25з59150 0.0 10132423
14:00+26з58130 0.0 10103095
17:00+22зсз25190 0.0 1011114
20:00+16сз23280 0.0 101549